Location: Asheville, NC
(35.6000°N, 82.5500°W)
Time: 03:46:41
(UTC-05:00)

Vanguard 1 - Pass Details

Date: 16 December 2017
Orbit: 649 x 3834 km, 34.3° (Epoch: 20 January)

Event Time Altitude Azimuth Distance (km) Brightness Sun altitude
Rises 04:12:10 0° 175° (S) 7,207 14.6 -39.9°
Reaches altitude 10° 04:21:36 10° 153° (SSE) 6,692 14.5 -38.0°
Maximum altitude 04:30:28 14° 129° (SE) 6,594 14.7 -36.2°
Drops below altitude 10° 04:39:26 10° 106° (ESE) 6,886 15.1 -34.4°
Sets 04:49:07 0° 85° (E) 7,595 15.6 -32.4°
